Weather reports worldwide

Advertisment
Madridejos, Spain (8273): temperature & dewpoint: 29.06.2020 16:00:00 - 05.07.2020 16:00:00 (CEST)Madridejos, Spain (8273): wind speed & gusts: 29.06.2020 16:00:00 - 05.07.2020 16:00:00 (CEST)Madridejos, Spain (8273): wind direction: 29.06.2020 16:00:00 - 05.07.2020 16:00:00 (CEST)Madridejos, Spain (8273): reduced air pressure: 29.06.2020 16:00:00 - 05.07.2020 16:00:00 (CEST)Madridejos, Spain (8273): visibility: 29.06.2020 16:00:00 - 05.07.2020 16:00:00 (CEST)Madridejos, Spain (8273): sunshine duration: 29.06.2020 16:00:00 - 05.07.2020 16:00:00 (CEST)Madridejos, Spain (8273): precipitation: 29.06.2020 16:00:00 - 05.07.2020 16:00:00 (CEST)
Date & Time tt [°C] td [°C] ff [km/h] ff [kn] fx [km/h] fx [kn] dd ppp [hPa] vv [km] sd [min] rr [mm]
05.07.2020 16:00:00 - - - - - - - - - - -
05.07.2020 15:00:00 34,6 4,1 8 4 26 14 WNW 1013,7 20 60 0,0
05.07.2020 14:00:00 33,7 8,4 7 4 21 12 SSE 1014,5 20 60 -
05.07.2020 13:00:00 31,8 12,5 6 4 21 11 NNE 1015,4 20 60 0,0
05.07.2020 12:00:00 29,2 13,9 6 3 16 9 SE 1016,4 20 60 0,0
05.07.2020 11:00:00 26,5 14,9 6 3 28 15 E 1017,2 20 60 0,0
05.07.2020 10:00:00 23,9 15,4 9 5 29 16 E 1018,1 20 60 0,0
05.07.2020 09:00:00 21,4 15,7 12 6 22 12 ENE 1018,7 20 60 0,0
05.07.2020 08:00:00 - - - - - - - - - - -
05.07.2020 07:00:00 - - - - - - - - - - -
05.07.2020 06:00:00 - - - - - - - - - - -
05.07.2020 05:00:00 - - - - - - - - - - -
05.07.2020 04:00:00 19,8 12,1 9 5 27 15 E 1018,9 20 0 0,0
05.07.2020 03:00:00 20,8 3,4 8 4 22 12 ESE 1018,9 20 0 0,0
05.07.2020 02:00:00 23,1 -0,5 5 3 31 17 SE 1018,4 20 0 -
05.07.2020 01:00:00 24,4 0,0 1 1 19 10 N 1017,6 20 0 0,0
05.07.2020 00:00:00 26,4 0,2 9 5 17 9 NNE 1016,8 20 0 0,0
04.07.2020 23:00:00 27,9 0,6 8 4 16 9 NNE 1016,0 20 0 0,0
04.07.2020 22:00:00 29,9 0,4 8 5 18 10 NNE 1014,8 20 11 0,0
04.07.2020 21:00:00 32,5 1,5 11 6 20 11 NE 1013,8 20 51 0,0
04.07.2020 20:00:00 33,7 2,5 5 3 16 9 NE 1013,4 20 60 -
04.07.2020 19:00:00 34,1 1,7 6 3 21 11 NNW 1013,5 20 60 0,0
04.07.2020 18:00:00 33,7 2,5 7 4 21 11 NW 1014,1 20 60 0,0
04.07.2020 17:00:00 33,2 3,0 6 3 22 12 WNW 1014,6 20 60 0,0
04.07.2020 16:00:00 33,1 3,9 7 4 20 11 NW 1015,0 20 60 0,0
04.07.2020 15:00:00 32,2 5,6 7 4 25 13 WNW 1015,9 20 60 0,0
04.07.2020 14:00:00 31,3 6,4 9 5 21 11 SSE 1016,6 20 60 -
04.07.2020 13:00:00 29,4 10,5 9 5 26 14 NNE 1017,6 20 60 0,0
04.07.2020 12:00:00 26,9 13,3 7 4 26 14 NE 1018,2 20 60 0,0
04.07.2020 11:00:00 24,8 15,7 8 5 30 16 NNE 1018,7 20 60 0,0
04.07.2020 10:00:00 22,9 15,7 10 5 28 15 ENE 1019,1 20 60 0,0
04.07.2020 09:00:00 20,9 14,5 4 2 20 11 NE 1019,4 19 60 0,0
04.07.2020 08:00:00 15,4 6,4 7 4 20 11 WNW 1020,8 6 37 -
04.07.2020 07:00:00 14,7 5,5 13 7 22 12 NNE 1020,8 17 0 0,0
04.07.2020 06:00:00 15,9 3,9 5 3 19 10 NNW 1019,9 20 0 0,0
04.07.2020 05:00:00 16,6 1,1 5 3 10 6 WSW 1019,5 20 0 0,0
04.07.2020 04:00:00 18,7 1,7 4 2 26 14 NE 1018,9 20 0 0,0
04.07.2020 03:00:00 17,8 0,4 9 5 25 14 WNW 1018,8 20 0 0,0
04.07.2020 02:00:00 19,4 0,4 7 4 20 11 WSW 1018,2 20 0 -
04.07.2020 01:00:00 20,6 -0,7 5 3 8 5 W 1017,7 10 0 0,0
04.07.2020 00:00:00 23,3 -0,3 4 2 15 8 N 1016,8 20 0 0,0
03.07.2020 23:00:00 25,5 -0,5 6 3 17 9 N 1015,8 20 0 0,0
03.07.2020 22:00:00 28,1 -1,0 11 6 20 11 N 1014,6 20 13 0,0
03.07.2020 21:00:00 30,3 -0,3 13 7 23 13 N 1013,5 20 51 0,0
03.07.2020 20:00:00 31,6 -0,3 12 7 25 14 NNW 1012,7 20 60 -
03.07.2020 19:00:00 31,4 -0,3 11 6 25 14 NNE 1012,5 20 60 0,0
03.07.2020 18:00:00 31,5 0,9 8 5 22 12 NNW 1012,7 20 60 0,0
03.07.2020 17:00:00 31,7 0,0 11 6 28 15 WNW 1013,1 20 60 0,0
03.07.2020 16:00:00 30,1 0,6 11 6 23 12 NNW 1013,8 20 60 0,0
03.07.2020 15:00:00 29,9 2,3 5 3 24 13 S 1014,3 20 60 0,0
03.07.2020 14:00:00 28,7 2,1 7 4 21 11 W 1015,0 20 60 -
03.07.2020 13:00:00 27,3 6,7 5 3 27 15 WNW 1015,4 20 60 0,0
03.07.2020 12:00:00 24,6 10,5 10 5 30 16 NW 1016,1 20 60 0,0
03.07.2020 11:00:00 22,3 11,1 14 7 35 19 NNW 1016,7 20 60 0,0
03.07.2020 10:00:00 20,8 10,5 10 5 28 15 N 1016,9 20 60 0,0
03.07.2020 09:00:00 19,6 8,9 14 8 29 16 NW 1016,9 20 60 0,0
03.07.2020 08:00:00 17,0 4,3 11 6 26 14 WNW 1017,2 20 53 -
03.07.2020 07:00:00 15,1 3,6 14 8 24 13 WNW 1017,4 20 0 0,0
03.07.2020 06:00:00 17,0 3,6 11 6 26 14 W 1016,5 20 0 0,0
03.07.2020 05:00:00 18,1 3,6 4 2 26 14 NW 1016,1 20 0 0,0
03.07.2020 04:00:00 18,9 3,4 11 6 35 19 WNW 1015,8 20 0 0,0
03.07.2020 03:00:00 20,3 3,4 16 9 34 18 WNW 1015,3 20 0 0,0
03.07.2020 02:00:00 20,8 3,9 13 7 34 18 WNW 1015,2 20 0 -
03.07.2020 01:00:00 22,0 4,1 10 5 28 15 NW 1014,9 20 0 0,0
03.07.2020 00:00:00 22,3 4,3 7 4 15 8 NW 1014,4 20 0 0,0
02.07.2020 23:00:00 24,9 5,6 11 6 25 13 W 1013,1 20 0 0,0
02.07.2020 22:00:00 27,9 4,8 16 9 33 18 WSW 1011,6 20 13 0,0
02.07.2020 21:00:00 29,7 4,3 17 9 36 19 WSW 1010,6 20 51 0,0
02.07.2020 20:00:00 31,0 2,3 20 11 40 22 WSW 1010,1 20 60 -
02.07.2020 19:00:00 32,3 0,4 19 11 44 24 WSW 1009,8 20 60 0,0
02.07.2020 18:00:00 32,6 -0,5 21 11 46 25 W 1009,8 20 60 0,0
02.07.2020 17:00:00 32,5 0,4 26 14 51 28 W 1009,8 20 60 0,0
02.07.2020 16:00:00 32,6 0,6 25 13 54 29 W 1010,4 20 60 0,0
02.07.2020 15:00:00 32,3 0,4 25 13 47 25 W 1010,8 20 60 0,0
02.07.2020 14:00:00 31,6 1,9 26 14 45 24 WSW 1011,1 20 60 -
02.07.2020 13:00:00 31,4 0,6 24 13 42 23 W 1011,2 20 60 0,0
02.07.2020 12:00:00 30,1 2,3 16 9 31 17 WSW 1011,5 20 60 0,0
02.07.2020 11:00:00 28,8 5,6 14 8 29 16 W 1011,7 20 60 0,0
02.07.2020 10:00:00 26,9 6,8 8 5 19 11 WSW 1012,1 20 60 0,0
02.07.2020 09:00:00 24,0 8,0 8 4 23 12 SW 1012,6 20 60 0,0
02.07.2020 08:00:00 20,1 7,4 6 4 22 12 WSW 1013,1 12 49 -
02.07.2020 07:00:00 18,4 7,1 4 2 8 5 W 1013,3 13 0 0,0
02.07.2020 06:00:00 19,6 7,0 4 2 20 11 W 1012,7 20 0 0,0
02.07.2020 05:00:00 20,3 7,3 6 3 22 12 WSW 1012,3 20 0 0,0
02.07.2020 04:00:00 21,1 7,0 6 4 14 7 WNW 1012,4 20 0 0,0
02.07.2020 03:00:00 22,5 7,1 9 5 17 9 SW 1012,1 20 0 0,0
02.07.2020 02:00:00 23,4 5,3 8 5 18 10 SW 1011,8 20 0 -
02.07.2020 01:00:00 23,9 2,7 6 4 17 9 WSW 1011,9 20 0 0,0
02.07.2020 00:00:00 25,9 0,4 11 6 21 11 WSW 1011,1 20 0 0,0
01.07.2020 23:00:00 26,3 0,9 11 6 20 11 W 1010,7 20 0 0,0
01.07.2020 22:00:00 29,7 1,3 13 7 27 15 WSW 1009,2 20 12 0,0
01.07.2020 21:00:00 32,3 -0,7 19 10 36 20 WSW 1008,3 20 52 0,0
01.07.2020 20:00:00 33,7 0,4 18 10 59 32 W 1007,5 20 60 -
01.07.2020 19:00:00 34,5 1,1 22 12 42 23 W 1007,2 20 60 0,0
01.07.2020 18:00:00 34,9 2,5 21 11 46 25 W 1007,4 20 60 0,0
01.07.2020 17:00:00 34,7 2,3 19 10 44 24 WSW 1007,5 20 60 0,0
01.07.2020 16:00:00 34,8 1,3 24 13 49 27 WSW 1008,0 20 60 0,0
01.07.2020 15:00:00 34,6 4,1 22 12 46 25 WSW 1008,0 20 60 0,0
01.07.2020 14:00:00 33,3 5,0 25 14 50 27 WSW 1008,7 20 60 -
01.07.2020 13:00:00 32,2 4,8 21 11 48 26 WSW 1009,3 20 60 0,0
01.07.2020 12:00:00 31,3 4,1 26 14 49 26 WSW 1009,6 20 60 0,0
01.07.2020 11:00:00 29,7 7,0 27 14 45 24 WSW 1009,8 20 60 0,0
01.07.2020 10:00:00 27,7 8,0 11 6 29 15 WSW 1010,4 20 60 0,0
01.07.2020 09:00:00 25,6 8,1 14 8 25 14 SW 1010,7 20 60 0,0
01.07.2020 08:00:00 22,3 7,7 4 2 19 10 S 1011,2 20 46 -
01.07.2020 07:00:00 21,9 7,7 8 4 31 17 WSW 1010,6 20 0 0,0
01.07.2020 06:00:00 21,7 7,6 12 7 29 16 W 1010,0 20 0 0,0
01.07.2020 05:00:00 23,4 7,4 4 2 16 9 SW 1009,6 20 0 0,0
01.07.2020 04:00:00 24,4 7,1 6 4 12 6 WSW 1009,2 20 0 0,0
01.07.2020 03:00:00 25,0 6,7 7 4 35 19 SW 1009,3 20 0 0,0
01.07.2020 02:00:00 25,1 6,2 8 5 20 11 WSW 1009,3 20 0 -
01.07.2020 01:00:00 25,4 5,0 9 5 15 8 WSW 1008,9 20 0 0,0
01.07.2020 00:00:00 27,0 2,9 9 5 16 9 WSW 1008,0 20 0 0,0
30.06.2020 23:00:00 28,5 1,9 7 4 16 9 SW 1007,3 20 0 0,0
30.06.2020 22:00:00 31,4 0,6 11 6 25 13 WSW 1006,1 20 13 0,0
30.06.2020 21:00:00 34,4 -0,3 17 9 35 19 SW 1004,9 20 52 0,0
30.06.2020 20:00:00 36,2 -1,7 19 10 42 23 WSW 1004,2 20 60 -
30.06.2020 19:00:00 37,0 0,4 22 12 45 25 SW 1003,9 20 60 0,0
30.06.2020 18:00:00 37,4 3,2 26 14 44 24 W 1004,2 20 60 0,0
30.06.2020 17:00:00 37,7 3,4 14 7 42 23 WSW 1004,3 20 60 0,0
30.06.2020 16:00:00 37,3 4,3 13 7 41 22 SW 1005,2 20 60 0,0
30.06.2020 15:00:00 36,3 3,4 13 7 32 17 SW 1006,1 20 60 0,0
30.06.2020 14:00:00 35,8 4,1 14 7 42 23 WSW 1006,7 20 60 -
30.06.2020 13:00:00 33,9 6,2 9 5 26 14 SSW 1007,6 20 60 0,0
30.06.2020 12:00:00 32,0 7,6 9 5 16 8 ESE 1008,3 20 60 0,0
30.06.2020 11:00:00 29,0 7,6 6 3 17 9 SE 1009,4 20 60 0,0
30.06.2020 10:00:00 25,6 8,5 6 4 23 13 ESE 1010,3 20 60 0,0
30.06.2020 09:00:00 23,4 8,3 6 3 22 12 SE 1011,1 20 60 0,0
30.06.2020 08:00:00 19,4 9,0 8 4 17 9 E 1012,0 15 47 -
30.06.2020 07:00:00 19,6 8,9 3 2 22 12 ESE 1011,9 20 0 0,0
30.06.2020 06:00:00 20,2 9,2 8 4 23 12 ESE 1011,3 20 0 0,0
30.06.2020 05:00:00 20,5 9,4 8 4 21 11 E 1011,0 20 0 0,0
30.06.2020 04:00:00 22,0 8,5 8 4 10 5 ENE 1010,8 20 0 0,0
30.06.2020 03:00:00 22,8 5,6 7 4 15 8 NE 1010,9 20 0 0,0
30.06.2020 02:00:00 23,5 5,8 4 2 11 6 E 1010,9 20 0 -
30.06.2020 01:00:00 25,2 6,4 5 3 13 7 W 1010,6 20 0 0,0
30.06.2020 00:00:00 26,1 5,6 9 5 20 11 N 1010,4 20 0 0,0
29.06.2020 23:00:00 28,4 5,3 11 6 16 9 WNW 1009,5 20 0 0,0
29.06.2020 22:00:00 31,1 6,2 9 5 15 8 WNW 1008,2 20 12 0,0
29.06.2020 21:00:00 34,7 5,1 11 6 30 16 W 1007,2 20 52 0,0
29.06.2020 20:00:00 36,1 4,3 10 6 31 17 W 1006,7 20 60 -
29.06.2020 19:00:00 36,8 5,0 14 8 34 18 W 1006,9 20 60 0,0
29.06.2020 18:00:00 36,3 4,5 10 6 35 19 WSW 1007,7 20 60 0,0
29.06.2020 17:00:00 35,8 6,1 6 3 40 21 N 1008,3 20 51 0,0
29.06.2020 16:00:00 35,4 5,8 5 3 32 18 SE 1009,0 20 60 0,0

tt = temperature
td = dewpoint
ff = wind speed
fx = gusts
dd = wind direction
ppp = reduced air pressure
vv = visibility
sd = sunshine duration
rr = precipitation

Next stations